TimeEET,TemperatureF,Dew PointF,Humidity,Sea Level PressureIn,VisibilityMPH,Wind Direction,Wind SpeedMPH,Gust SpeedMPH,PrecipitationIn,Events,Conditions,WindDirDegrees,DateUTC
12:50 AM,26.6,26.6,100,29.80,3.7,East,5.8,-,N/A,,Scattered Clouds,100,2013-01-28 22:50:00
1:50 AM,26.6,26.6,100,29.83,2.8,Calm,Calm,-,N/A,,Scattered Clouds,0,2013-01-28 23:50:00
2:00 AM,27,27,99,,3,Calm,Calm,,,,Mist,,2013-01-29 00:00:00
2:50 AM,26.6,26.6,100,29.80,2.5,NNW,5.8,-,N/A,,Mist,330,2013-01-29 00:50:00
3:50 AM,26.6,24.8,93,29.77,2.8,Variable,3.5,-,N/A,,Mist,0,2013-01-29 01:50:00
4:50 AM,26.6,26.6,100,29.77,-9999.0,East,3.5,-,N/A,,Mist,80,2013-01-29 02:50:00
5:50 AM,24.8,24.8,100,29.77,3.7,Calm,Calm,-,N/A,,Scattered Clouds,0,2013-01-29 03:50:00
6:50 AM,23.0,23.0,100,29.80,4.3,West,3.5,-,N/A,,Scattered Clouds,280,2013-01-29 04:50:00
7:50 AM,26.6,24.8,93,29.77,4.3,Calm,Calm,-,N/A,,Scattered Clouds,0,2013-01-29 05:50:00
8:00 AM,26,26,99,,4,Calm,Calm,,,,Mist,,2013-01-29 06:00:00
8:50 AM,32.0,28.4,87,29.77,6.2,Calm,Calm,-,N/A,,Partly Cloudy,0,2013-01-29 06:50:00
9:50 AM,35.6,28.4,75,29.77,6.2,SE,1.2,-,N/A,,Partly Cloudy,140,2013-01-29 07:50:00
10:50 AM,39.2,30.2,70,29.74,6.2,Calm,Calm,-,N/A,,Partly Cloudy,0,2013-01-29 08:50:00
11:50 AM,39.2,30.2,70,29.71,6.2,NW,3.5,-,N/A,,Partly Cloudy,310,2013-01-29 09:50:00
12:50 PM,44.6,32.0,61,29.68,6.2,Variable,1.2,-,N/A,,Scattered Clouds,0,2013-01-29 10:50:00
1:50 PM,39.2,30.2,70,29.71,6.2,Variable,1.2,-,N/A,,Mostly Cloudy,0,2013-01-29 11:50:00
2:00 PM,40,31,59,,6,SSE,1.2,,,,Partly Cloudy,160,2013-01-29 12:00:00
2:50 PM,41.0,30.2,65,29.71,6.2,WNW,6.9,-,N/A,,Mostly Cloudy,300,2013-01-29 12:50:00
3:50 PM,39.2,32.0,75,29.74,6.2,WNW,11.5,-,N/A,,Mostly Cloudy,300,2013-01-29 13:50:00
4:50 PM,37.4,32.0,81,29.77,6.2,West,13.8,-,N/A,Rain,Light Rain,280,2013-01-29 14:50:00
5:50 PM,37.4,28.4,70,29.77,6.2,West,12.7,-,N/A,,Mostly Cloudy,280,2013-01-29 15:50:00
6:50 PM,37.4,28.4,70,29.80,6.2,WNW,12.7,-,N/A,,Mostly Cloudy,300,2013-01-29 16:50:00
7:50 PM,35.6,26.6,70,29.83,6.2,WNW,15.0,-,N/A,,Mostly Cloudy,300,2013-01-29 17:50:00
8:00 PM,35,26,61,,6,WNW,15.0,,,,Partly Cloudy,300,2013-01-29 18:00:00
8:50 PM,35.6,24.8,65,29.83,6.2,WNW,13.8,-,N/A,,Mostly Cloudy,300,2013-01-29 18:50:00
9:50 PM,33.8,24.8,70,29.86,6.2,WNW,12.7,-,N/A,,Mostly Cloudy,290,2013-01-29 19:50:00
10:50 PM,35.6,24.8,65,29.89,6.2,WNW,12.7,-,N/A,,Mostly Cloudy,290,2013-01-29 20:50:00
11:50 PM,33.8,24.8,70,29.89,6.2,NW,9.2,-,N/A,,Mostly Cloudy,310,2013-01-29 21:50:00